Tracking 27097 objects as of 29-Mar-2023
HD Live streaming from Space Station
objects crossing your sky now

OSCAR 30 DEB

Track OSCAR 30 DEB now!
10-day predictions


NORAD ID: 21878
Int'l Code: 1985-066H
Perigee: 972.5 km
Apogee: 1,196.2 km
Inclination: 90.1 °
Period: 106.8 minutes
Semi major axis: 7455 km
RCS: 0.311 m2 (medium)
Launch date: August 3, 1985
Source: United States (US)
Launch site: AIR FORCE WESTERN TEST RANGE (AFWTR)

Note: This is SATELLITE DEBRIS
Your satellite tracking list
Your tracking list is empty




NASA's NSSDC Master Catalog

Two Line Element Set (TLE):
1 21878U 85066H   23087.94430343  .00001750  00000-0  26119-2 0  9995
2 21878  90.1379  51.4750 0150036 335.6841  84.5571 13.48649141840232
Source of the keplerian elements: AFSPC